Flag for Pakistan Weather past 2 weeks in Karachi, Sindh, Pakistan

Now
82 °F

Partly cloudy.


Feels Like: 89 °F
Forecast: 84 / 89 °F
Wind: 7 mph from Southwest

Location: Karachi Airport

Current Time: Jul 29, 2015 at 6:47:12 AM

Latest Report: Jul 29, 2015 at 5:00 AM


Visibility: 3 mi

Pressure: 29.53 "Hg

Humidity: 79%

Dew point: 75 °F

Location of KarachiLocation

Historic Weather in Karachi — Graph

°F

Karachi temperature yesterday

Maximum temperature yesterday: 88 °F (at 1:55 PM)
Minimum temperature yesterday: 82 °F (at 12:25 AM)
Average temperature yesterday: 84 °F

Past Weeks' High & Low Weather Summary

 TemperatureHumidityPressure
High97 °F (Jul 21, 1:25 PM)94% (Jul 23, 6:25 PM)29.71 "Hg (Jul 23, 6:25 PM)
Low77 °F (Jul 21, 11:55 PM)22% (Jul 27, 10:30 AM)29.33 "Hg (Jul 16, 2:55 PM)
Average87 °F70%29.51 "Hg
* Reported Jul 14 6:25 AM — Jul 29 5:00 AM, Karachi, Weather by CustomWeather, © 2015

Note: Actual official high and low records may vary slightly from our data, if they occured in-between our weather recording intervals... More about our weather records

Advertising

Karachi weather history for previous 24 hours

 ConditionsComfort  
Time TempWeatherWind HumidityBarometerVisibility
5:00 AM
Wed, Jul 29
82 °FPartly cloudy.7 mph79%29.53 "Hg3 mi
4:30 AM82 °FPartly cloudy.7 mph79%29.50 "Hg3 mi
4:00 AM82 °FPartly cloudy.7 mph79%29.50 "Hg3 mi
3:30 AM82 °FPartly cloudy.9 mph79%29.50 "Hg3 mi
3:00 AM82 °FPartly cloudy.12 mph79%29.53 "Hg3 mi
2:30 AM82 °FPartly cloudy.12 mph79%29.53 "Hg3 mi
2:00 AM82 °FPartly cloudy.12 mph79%29.53 "Hg3 mi
1:30 AM82 °FPartly cloudy.12 mph79%29.53 "Hg3 mi
1:00 AM82 °FPartly cloudy.12 mph79%29.53 "Hg3 mi
12:30 AM82 °FPartly cloudy.14 mph79%29.53 "Hg3 mi
11:55 PM
Tue, Jul 28
82 °FPartly cloudy.17 mph79%29.56 "Hg3 mi
11:25 PM82 °FPartly cloudy.15 mph79%29.56 "Hg3 mi
10:55 PM82 °FPartly cloudy.14 mph79%29.56 "Hg3 mi
10:25 PM82 °FPartly cloudy.18 mph79%29.56 "Hg3 mi
9:55 PM82 °FPartly cloudy.12 mph79%29.56 "Hg3 mi
9:25 PM82 °FPartly cloudy.13 mph79%29.53 "Hg3 mi
8:55 PM82 °FPartly cloudy.14 mph79%29.53 "Hg3 mi
8:25 PM84 °FDrizzle. Mostly cloudy.12 mph74%29.53 "Hg3 mi
7:55 PM84 °FDrizzle. Mostly cloudy.14 mph74%29.53 "Hg3 mi
7:25 PM84 °FDrizzle. Mostly cloudy.16 mph74%29.53 "Hg3 mi
6:55 PM84 °FDrizzle. Broken clouds.13 mph74%29.50 "Hg4 mi
6:35 PM84 °FBroken clouds.15 mph74%29.50 "Hg4 mi
5:55 PM84 °FBroken clouds.16 mph74%29.50 "Hg4 mi
5:25 PM84 °FBroken clouds.17 mph74%29.47 "Hg4 mi
4:55 PM86 °FBroken clouds.18 mph70%29.47 "Hg4 mi
4:25 PM86 °FBroken clouds.20 mph70%29.50 "Hg4 mi
3:55 PM86 °FBroken clouds.22 mph70%29.47 "Hg4 mi
3:25 PM88 °FBroken clouds.14 mph66%29.47 "Hg4 mi
2:55 PM88 °FBroken clouds.14 mph66%29.50 "Hg4 mi
2:25 PM88 °FBroken clouds.14 mph66%29.50 "Hg4 mi
1:55 PM88 °FBroken clouds.17 mph66%29.50 "Hg4 mi
1:25 PM86 °FBroken clouds.16 mph70%29.50 "Hg4 mi
12:55 PM86 °FBroken clouds.21 mph70%29.53 "Hg4 mi
12:25 PM86 °FBroken clouds.23 mph70%29.53 "Hg4 mi
11:55 AM86 °FBroken clouds.25 mph70%29.53 "Hg4 mi
11:25 AM86 °FBroken clouds.21 mph70%29.53 "Hg4 mi
10:55 AM86 °FBroken clouds.17 mph70%29.53 "Hg4 mi
10:25 AM84 °FMostly cloudy.18 mph79%29.53 "Hg4 mi
9:55 AM84 °FMostly cloudy.20 mph79%29.53 "Hg4 mi
9:25 AM82 °FDrizzle. Mostly cloudy.17 mph79%29.53 "Hg3 mi
8:55 AM82 °FMostly cloudy.16 mph79%29.50 "Hg4 mi
8:25 AM82 °FMostly cloudy.17 mph79%29.50 "Hg4 mi
7:55 AM82 °FMostly cloudy.16 mph79%29.50 "Hg4 mi
7:25 AM82 °FMostly cloudy.15 mph79%29.50 "Hg4 mi
6:55 AM82 °FMostly cloudy.18 mph79%29.50 "Hg4 mi
6:25 AM82 °FDrizzle. Mostly cloudy.17 mph79%29.47 "Hg3 mi
Weather by CustomWeather, © 2015

See weather overviewHow to use our weather pages